When you browse on this site, cookies collect data to enhance your experience and personalize the content and advertising you see.
Visit our Privacy Policy to learn more. By continuing to use the site, you agree to this use of cookies and data.
  • In Latvia
  • List of Countries
  • For 7 days
  • Water Temperature
  • Weather Map
  • Weather Widgets
  • user-avatar
    Login

    Hourly Weather Pecs

    Today, 21 September, Saturday

    Time Temperature Precipitation Wind Pressure Humidity
    00:00 +9°C° 0 mm 0 mps 751 mmHg 49%
    01:00 +8°C° 0 mm 0 mps 752 mmHg 50%
    02:00 +8°C° 0 mm 0 mps 752 mmHg 51%
    03:00 +8°C° 0 mm 0 mps 751 mmHg 52%
    04:00 +7°C° 0 mm 0 mps 751 mmHg 53%
    05:00 +8°C° 0 mm 0 mps 751 mmHg 51%
    06:00 +9°C° 0 mm 0 mps 751 mmHg 48%
    07:00 +11°C° 0 mm 0 mps 752 mmHg 45%
    08:00 +14°C° 0 mm 1 mps 752 mmHg 41%
    09:00 +16°C° 0 mm 1 mps 752 mmHg 36%
    10:00 +18°C° 0 mm 2 mps 752 mmHg 32%
    11:00 +18°C° 0 mm 2 mps 751 mmHg 31%
    12:00 +19°C° 0 mm 2 mps 751 mmHg 29%
    13:00 +20°C° 0 mm 2 mps 750 mmHg 28%
    14:00 +20°C° 0 mm 2 mps 750 mmHg 28%
    15:00 +20°C° 0 mm 2 mps 749 mmHg 28%
    16:00 +20°C° 0 mm 2 mps 749 mmHg 29%
    17:00 +18°C° 0 mm 2 mps 749 mmHg 33%
    18:00 +16°C° 0 mm 2 mps 749 mmHg 37%
    19:00 +14°C° 0 mm 1 mps 749 mmHg 41%
    20:00 +13°C° 0 mm 1 mps 749 mmHg 42%
    21:00 +13°C° 0 mm 1 mps 748 mmHg 43%
    22:00 +12°C° 0 mm 1 mps 748 mmHg 43%
    23:00 +12°C° 0 mm 2 mps 748 mmHg 44%

    Tomorrow, 22 September, Sunday

    Time Temperature Precipitation Wind Pressure Humidity
    00:00 +10°C° 0 mm 2 mps 748 mmHg 44%
    01:00 +10°C° 0 mm 2 mps 748 mmHg 44%
    02:00 +10°C° 0 mm 2 mps 747 mmHg 46%
    03:00 +9°C° 0 mm 2 mps 747 mmHg 47%
    04:00 +9°C° 0 mm 2 mps 747 mmHg 48%
    05:00 +9°C° 0 mm 2 mps 747 mmHg 47%
    06:00 +10°C° 0 mm 2 mps 746 mmHg 45%
    07:00 +12°C° 0 mm 2 mps 746 mmHg 44%
    08:00 +13°C° 0 mm 3 mps 746 mmHg 38%
    09:00 +17°C° 0 mm 3 mps 746 mmHg 32%
    10:00 +20°C° 0 mm 4 mps 746 mmHg 27%
    11:00 +21°C° 0 mm 3 mps 746 mmHg 25%
    12:00 +24°C° 0 mm 3 mps 745 mmHg 24%
    13:00 +25°C° 0 mm 3 mps 744 mmHg 23%
    14:00 +25°C° 0 mm 3 mps 744 mmHg 24%
    15:00 +25°C° 0 mm 3 mps 743 mmHg 26%
    16:00 +25°C° 0 mm 3 mps 743 mmHg 27%
    17:00 +23°C° 0 mm 2 mps 743 mmHg 31%
    18:00 +20°C° 0 mm 2 mps 743 mmHg 35%
    19:00 +18°C° 0 mm 2 mps 742 mmHg 39%
    20:00 +18°C° 0 mm 2 mps 742 mmHg 38%
    21:00 +18°C° 0 mm 2 mps 742 mmHg 37%
    22:00 +18°C° 0 mm 2 mps 742 mmHg 37%
    23:00 +19°C° 0 mm 1 mps 742 mmHg 38%

    Day after tomorrow, 23 September, Monday

    Time Temperature Precipitation Wind Pressure Humidity
    00:00 +19°C° 0 mm 1 mps 742 mmHg 39%
    01:00 +19°C° 0 mm 1 mps 742 mmHg 40%
    02:00 +19°C° 0 mm 1 mps 742 mmHg 40%
    03:00 +19°C° 0 mm 1 mps 741 mmHg 40%
    04:00 +19°C° 0 mm 1 mps 741 mmHg 40%
    05:00 +19°C° 0 mm 1 mps 741 mmHg 40%
    06:00 +19°C° 0 mm 1 mps 741 mmHg 40%
    07:00 +19°C° 0 mm 1 mps 741 mmHg 40%
    08:00 +19°C° 0.1 mm 1 mps 741 mmHg 44%
    09:00 +19°C° 0.1 mm 1 mps 741 mmHg 48%
    10:00 +20°C° 0.1 mm 1 mps 741 mmHg 52%
    11:00 +19°C° 0.7 mm 1 mps 741 mmHg 62%
    12:00 +18°C° 0.7 mm 1 mps 741 mmHg 71%
    13:00 +18°C° 0.7 mm 1 mps 741 mmHg 81%
    14:00 +16°C° 2 mm 1 mps 741 mmHg 85%
    15:00 +15°C° 2 mm 1 mps 740 mmHg 88%
    16:00 +15°C° 2 mm 2 mps 740 mmHg 92%
    17:00 +15°C° 0.5 mm 2 mps 740 mmHg 92%
    18:00 +14°C° 0.5 mm 2 mps 740 mmHg 93%
    19:00 +14°C° 0.5 mm 2 mps 741 mmHg 93%
    20:00 +14°C° 0 mm 2 mps 741 mmHg 94%
    21:00 +14°C° 0 mm 2 mps 741 mmHg 94%
    22:00 +13°C° 0 mm 2 mps 741 mmHg 95%
    23:00 +13°C° 0.4 mm 2 mps 741 mmHg 95%

    24 September, Tuesday

    Time Temperature Precipitation Wind Pressure Humidity
    00:00 +12°C° 0.4 mm 3 mps 741 mmHg 95%
    01:00 +12°C° 0.4 mm 3 mps 741 mmHg 95%
    02:00 +12°C° 0 mm 3 mps 741 mmHg 94%
    03:00 +12°C° 0 mm 3 mps 741 mmHg 94%
    04:00 +13°C° 0 mm 2 mps 740 mmHg 93%
    05:00 +12°C° 0 mm 3 mps 740 mmHg 92%
    06:00 +12°C° 0 mm 3 mps 741 mmHg 91%
    07:00 +12°C° 0 mm 3 mps 741 mmHg 90%
    08:00 +13°C° 0 mm 3 mps 741 mmHg 85%
    09:00 +14°C° 0 mm 3 mps 741 mmHg 80%
    10:00 +17°C° 0 mm 2 mps 741 mmHg 74%
    11:00 +17°C° 0 mm 2 mps 741 mmHg 71%
    12:00 +18°C° 0 mm 2 mps 741 mmHg 67%
    13:00 +19°C° 0 mm 2 mps 740 mmHg 63%
    14:00 +20°C° 0 mm 1 mps 740 mmHg 63%
    15:00 +20°C° 0 mm 1 mps 740 mmHg 63%
    16:00 +20°C° 0 mm 1 mps 740 mmHg 63%
    17:00 +19°C° 0 mm 1 mps 740 mmHg 70%
    18:00 +16°C° 0 mm 1 mps 740 mmHg 77%
    19:00 +15°C° 0 mm 1 mps 740 mmHg 84%
    20:00 +14°C° 0 mm 1 mps 740 mmHg 86%
    21:00 +14°C° 0 mm 1 mps 740 mmHg 87%
    22:00 +14°C° 0 mm 1 mps 740 mmHg 89%
    23:00 +13°C° 0 mm 1 mps 740 mmHg 90%

    25 September, Wednesday

    Time Temperature Precipitation Wind Pressure Humidity
    00:00 +13°C° 0 mm 1 mps 740 mmHg 91%
    01:00 +13°C° 0 mm 1 mps 740 mmHg 92%
    02:00 +13°C° 0 mm 1 mps 740 mmHg 93%
    03:00 +12°C° 0 mm 1 mps 740 mmHg 93%
    04:00 +12°C° 0 mm 1 mps 739 mmHg 93%
    05:00 +13°C° 0 mm 1 mps 739 mmHg 90%
    06:00 +13°C° 0 mm 1 mps 739 mmHg 87%
    07:00 +14°C° 0 mm 1 mps 739 mmHg 84%
    08:00 +16°C° 0 mm 1 mps 740 mmHg 76%
    09:00 +18°C° 0 mm 1 mps 740 mmHg 68%
    10:00 +20°C° 0 mm 1 mps 740 mmHg 60%
    11:00 +21°C° 0 mm 1 mps 740 mmHg 57%
    12:00 +22°C° 0 mm 1 mps 739 mmHg 54%
    13:00 +22°C° 0 mm 1 mps 739 mmHg 51%
    14:00 +21°C° 0 mm 2 mps 739 mmHg 53%
    15:00 +21°C° 0 mm 3 mps 739 mmHg 54%
    16:00 +20°C° 0 mm 3 mps 739 mmHg 56%
    17:00 +19°C° 0 mm 3 mps 739 mmHg 62%
    18:00 +18°C° 0 mm 3 mps 740 mmHg 69%
    19:00 +16°C° 0 mm 3 mps 740 mmHg 76%
    20:00 +16°C° 0.1 mm 2 mps 740 mmHg 79%
    21:00 +15°C° 0.1 mm 2 mps 740 mmHg 81%
    22:00 +15°C° 0.1 mm 2 mps 741 mmHg 84%
    23:00 +15°C° 0 mm 2 mps 741 mmHg 85%

    26 September, Thursday

    Time Temperature Precipitation Wind Pressure Humidity
    00:00 +14°C° 0 mm 1 mps 741 mmHg 86%
    01:00 +14°C° 0 mm 1 mps 741 mmHg 87%
    02:00 +14°C° 0 mm 1 mps 741 mmHg 86%
    03:00 +14°C° 0 mm 1 mps 741 mmHg 84%
    04:00 +14°C° 0 mm 1 mps 741 mmHg 83%
    05:00 +14°C° 0 mm 1 mps 741 mmHg 83%
    06:00 +15°C° 0 mm 1 mps 742 mmHg 83%
    07:00 +15°C° 0 mm 1 mps 742 mmHg 82%
    08:00 +16°C° 0 mm 1 mps 742 mmHg 75%
    09:00 +19°C° 0 mm 1 mps 743 mmHg 67%
    10:00 +20°C° 0 mm 1 mps 743 mmHg 60%
    11:00 +21°C° 0 mm 1 mps 743 mmHg 55%
    12:00 +22°C° 0 mm 1 mps 743 mmHg 50%
    13:00 +23°C° 0 mm 1 mps 742 mmHg 45%
    14:00 +23°C° 0 mm 1 mps 742 mmHg 45%
    15:00 +23°C° 0 mm 2 mps 742 mmHg 46%
    16:00 +23°C° 0 mm 2 mps 742 mmHg 46%
    17:00 +20°C° 0 mm 2 mps 742 mmHg 52%
    18:00 +19°C° 0 mm 2 mps 742 mmHg 57%
    19:00 +17°C° 0 mm 2 mps 742 mmHg 63%
    20:00 +17°C° 0 mm 2 mps 743 mmHg 64%
    21:00 +16°C° 0 mm 1 mps 743 mmHg 66%
    22:00 +16°C° 0 mm 1 mps 743 mmHg 67%
    23:00 +15°C° 0 mm 1 mps 743 mmHg 68%
    Show more